Regional Weather Roundup
Issued by NWS

Home | Current Version | Previous Version | Graphics & Text | Print | Product List | Glossary On
Versions: 1 2 3 4 5 6 7 8 9 10 11 12 13 14 15 16 17 18 19 20 21 22 23 24 25 26 27 28 29 30 31 32 33 34 35 36 37 38 39 40 41 42 43 44 45 46 47 48 49 50
000
ASUS43 KFSD 310102
RWRSD

WEATHER ROUNDUP FOR SOUTH DAKOTA
NATIONAL WEATHER SERVICE SIOUX FALLS SD
700 PM CST FRI JAN 30 2015

NOTE: "FAIR" INDICATES FEW OR NO CLOUDS BELOW 12,000 FEET WITH NO
SIGNIFICANT WEATHER AND/OR OBSTRUCTIONS TO VISIBILITY.


SDZ001>005-009-010-012>017-310200-
NORTHWEST AND NORTH CENTRAL SOUTH DAKOTA

CITY           SKY/WX    TMP DP  RH WIND       PRES   REMARKS
BUFFALO          N/A     39  26  59 N13       30.10R
FAITH            N/A     36  21  54 N9        30.15R
MOBRIDGE       CLEAR     30  24  78 CALM      30.11S
$$

SDZ012>016-024>037-041>051-057-063-072>074-310200-
SOUTHWEST AND SOUTH CENTRAL SOUTH DAKOTA

CITY           SKY/WX    TMP DP  RH WIND       PRES   REMARKS
RAPID CTY ARPT MOCLDY    40  24  53 N15       30.14R
PIERRE         PTCLDY    28  21  75 N8        30.13R WCI  20
CUSTER         MOCLDY    34  20  56 CALM      30.13R
ELLSWORTH AFB  MOCLDY    43  24  47 N12       30.14R
PHILIP         PTCLDY    36  24  62 CALM      30.13R
PINE RIDGE     CLOUDY    36  23  59 E5        30.13R
WINNER         FAIR      41  25  53 N6        30.13R
$$

SDZ004>011-016>023-039-040-310200-
NORTHEAST SOUTH DAKOTA

CITY           SKY/WX    TMP DP  RH WIND       PRES   REMARKS
ABERDEEN       CLEAR     30  27  88 CALM      30.14R
WATERTOWN      CLEAR     30  27  88 SW9       30.13R WCI  22
SISSETON         N/A     32  28  85 NW3       30.13S
$$

SDZ017-020-022-023-036>040-048>070-310200-
SOUTHEAST SOUTH DAKOTA

CITY           SKY/WX    TMP DP  RH WIND       PRES   REMARKS
SIOUX FALLS    PTCLDY    33  28  81 S9        30.18F WCI  25
HURON          CLEAR     31  26  82 SE3       30.14R
MITCHELL       PTCLDY    37  28  70 S10       30.15S
YANKTON        CLEAR     37  25  60 S7        30.20F
$$

ABBREVIATIONS USED IN REMARKS
   TC - TEMPERATURE IN CELSIUS
  WCI - WIND CHILL INDEX
   HX - HEAT INDEX
  VSB - VISIBILITY




USA.gov is the U.S. government's official web portal to all federal, state and local government web resources and services.